Gilford, Vermont
Current Conditions -  °F | °C
As of 6:15 PM on Thursday 18 Dec 2014 (Local Time) from KEEN Reporting Station
Overcast Overcast  
Wind Chill: 36°   Ceiling: 2700
Heat Index: 36°   Visibility: 10mi
Dew Point: 27°   Wind: 0mph
Humidity: 70%   Direction: NA
Pressure: 29.85"   Gusts: NA
Location:  42.8513°N, 72.6568°W
Report Text: KEEN 182315Z AUTO 00000KT 10SM OVC027 02/M03 A2985 RMK AO1
Loading
Personal Weather Stations






























Interactive Weather Map New forecast layout! Learn more

10-Day Weather Forecast

Advertisements
Track Severe Weather on mobile